sat.trackr.live / text

‹ back to catalog

STARLINK-5178

NORAD 54083 · 2022-136AJ

PAYLOAD ACTIVE UNKNOWN

§ Identity

Operator
Country
US
Launch date
2022-10-20
Launch site
AFETR
Launch vehicle
Mass (kg)
RCS (m²)

Purposes: comms

External: N2YO · Heavens-Above · Gunter

§ Orbital elements

Epoch: 2026-09-20T22:00:03.000096Z

Period
94.41 min
Inclination
53.1614°
Eccentricity
0.0001411
Mean motion
15.25293021 rev/d
Perigee alt
488.9 km
Apogee alt
490.9 km
Semi-major
6,868.0 km
B*
4.8404e-5
RAAN
175.5765°
Arg perigee
86.4751°
Mean anomaly
64.0324°
Rev number
570

§ Raw data

STARLINK-51781 54083U 22136AJ  26263.91670139  .00000894  00000+0  48404-4 0  99932 54083  53.1614 175.5765 0001411  86.4751  64.0324 15.25293021  5707

JSON: /api/v1/satellites/54083 · /tle

For live sub-satellite position, see the globe view (requires WebGL).

§ Visibility from observer

Set your observer location to see the next 7 days of passes ≥ 10°. The values pass through the URL so the page stays shareable.

No JS? Fill the form by hand. The geolocation button needs JavaScript.